This is the latest recevied weather packets stored in our database for station/object K7FRY. If no packets are shown the sender has not sent any weather packets the latest 10 day(s).
| Time | Temp. | Humidity | Pressure | Rain* | Wind** | Luminosity | Snow |
|---|---|---|---|---|---|---|---|
| 1777101860 | 18.33° C | 35% | 1011.2 hPa | 0 mm | - | 0 W/m² | - |
| 1777101555 | 18.89° C | 35% | 1011.2 hPa | 0 mm | - | 0 W/m² | - |
| 1777101252 | 19.44° C | 35% | 1011.5 hPa | 0 mm | - | 0 W/m² | - |
| 1777100949 | 19.44° C | 34% | 1011.6 hPa | 0 mm | - | 0 W/m² | - |
| 1777100644 | 19.44° C | 34% | 1011.4 hPa | 0 mm | - | 0 W/m² | - |
| 1777100342 | 19.44° C | 34% | 1011.5 hPa | 0 mm | - | 0 W/m² | - |
| 1777100039 | 19.44° C | 34% | 1011.2 hPa | 0 mm | - | 0 W/m² | - |
| 1777099735 | 19.44° C | 34% | 1011.4 hPa | 0 mm | - | 0 W/m² | - |
| 1777099430 | 19.44° C | 34% | 1011.5 hPa | 0 mm | - | 0 W/m² | - |
| 1777099128 | 20° C | 32% | 1011.3 hPa | 0 mm | - | 0 W/m² | - |
| 1777098825 | 20.56° C | 31% | 1011.4 hPa | 0 mm | - | 0 W/m² | - |
| 1777098519 | 20° C | 31% | 1011.4 hPa | 0 mm | - | 0 W/m² | - |
| 1777098217 | 18.89° C | 32% | 1011.4 hPa | 0 mm | - | 0 W/m² | - |
| 1777097915 | 19.44° C | 31% | 1011.5 hPa | 0 mm | - | 0 W/m² | - |
| 1777097612 | 20.56° C | 30% | 1011.4 hPa | 0 mm | - | 0 W/m² | - |
| 1777097308 | 21.11° C | 30% | 1011.4 hPa | 0 mm | - | 0 W/m² | - |
| 1777097005 | 21.67° C | 29% | 1011.3 hPa | 0 mm | - | 0 W/m² | - |
| 1777096701 | 21.67° C | 30% | 1011.5 hPa | 0 mm | - | 0 W/m² | - |
| 1777096399 | 21.67° C | 30% | 1011.2 hPa | 0 mm | - | 0 W/m² | - |
| 1777096095 | 22.22° C | 29% | 1011.2 hPa | 0 mm | - | 0 W/m² | - |
| 1777095791 | 22.22° C | 29% | 1011.5 hPa | 0 mm | - | 0 W/m² | - |
| 1777095489 | 22.22° C | 27% | 1011.5 hPa | 0 mm | - | 0 W/m² | - |
| 1777095184 | 21.67° C | 26% | 1011.3 hPa | 0 mm | - | 0 W/m² | - |
| 1777094879 | 21.67° C | 26% | 1011.5 hPa | 0 mm | - | 0 W/m² | - |
| 1777094574 | 22.22° C | 26% | 1011.4 hPa | 0 mm | - | 0 W/m² | - |
* Rain latest hour (hover to see other rain measurements)
** Current wind speed in m/s (hover to see current wind gust speed)